Location: Chippewa Lake
(41.0698°N, 81.9010°W)
Time: 00:31:12
(UTC+00:00)

OBJECT-B - Pass Details

Date: 09 May 2021
Orbit: 414 x 423 km, 97.0° (Epoch: 05 June)

Event Time Altitude Azimuth Distance (km) Brightness Sun altitude
Exits shadow 01:01:22 - 157° (SSE) 2,174 3.9 -5.7°
Reaches altitude 10° 01:02:56 10° 153° (SSE) 1,508 3.1 -6.0°
Maximum altitude 01:06:05 53° 76° (ENE) 530 1.0 -6.5°
Drops below altitude 10° 01:09:16 10° 358° (N) 1,524 4.1 -7.0°
Sets 01:11:18 0° 354° (N) 2,395 5.2 -7.4°
